Data supplied by UK-AIR on 5/4/2008
All Data GMT hour ending 
Status: R =Ratified P=Provisional,P*=As supplied
,,Lullington Heath,,,,,,,,,,,,,,,,,,,,,,,
Date,time,"Nitric oxide",status,unit,"Nitrogen dioxide",status,unit,"Nitrogen oxides as nitrogen dioxide",status,unit,"Ozone",status,unit,"Sulphur dioxide",status,unit
 
01-01-2004,01:00,,,,,,,,,,,,,,,
01-01-2004,02:00,,,,,,,,,,42,R,ugm-3,10.6,R,ugm-3
01-01-2004,03:00,1.0,R,ugm-3,3.6,R,ugm-3,5.2,R,ugm-3,66,R,ugm-3,1.9,R,ugm-3
01-01-2004,04:00,1.4,R,ugm-3,0.0,R,ugm-3,2.1,R,ugm-3,76,R,ugm-3,0.0,R,ugm-3
01-01-2004,05:00,1.4,R,ugm-3,0.0,R,ugm-3,2.1,R,ugm-3,70,R,ugm-3,0.0,R,ugm-3
01-01-2004,06:00,1.4,R,ugm-3,0.0,R,ugm-3,2.1,R,ugm-3,68,R,ugm-3,0.0,R,ugm-3
01-01-2004,07:00,1.4,R,ugm-3,0.0,R,ugm-3,2.1,R,ugm-3,70,R,ugm-3,0.0,R,ugm-3
01-01-2004,08:00,1.4,R,ugm-3,0.0,R,ugm-3,2.1,R,ugm-3,68,R,ugm-3,0.0,R,ugm-3
01-01-2004,09:00,1.4,R,ugm-3,0.0,R,ugm-3,2.1,R,ugm-3,60,R,ugm-3,0.0,R,ugm-3
01-01-2004,10:00,1.4,R,ugm-3,0.0,R,ugm-3,2.1,R,ugm-3,58,R,ugm-3,0.0,R,ugm-3
01-01-2004,11:00,1.4,R,ugm-3,0.6,R,ugm-3,2.7,R,ugm-3,58,R,ugm-3,0.0,R,ugm-3
01-01-2004,12:00,1.4,R,ugm-3,0.6,R,ugm-3,2.7,R,ugm-3,54,R,ugm-3,0.0,R,ugm-3
01-01-2004,13:00,1.8,R,ugm-3,2.1,R,ugm-3,4.8,R,ugm-3,56,R,ugm-3,0.0,R,ugm-3
01-01-2004,14:00,1.8,R,ugm-3,2.1,R,ugm-3,4.8,R,ugm-3,58,R,ugm-3,0.0,R,ugm-3
01-01-2004,15:00,2.0,R,ugm-3,4.2,R,ugm-3,7.3,R,ugm-3,52,R,ugm-3,0.3,R,ugm-3
01-01-2004,16:00,1.8,R,ugm-3,5.2,R,ugm-3,7.8,R,ugm-3,56,R,ugm-3,0.3,R,ugm-3
01-01-2004,17:00,1.4,R,ugm-3,4.0,R,ugm-3,6.1,R,ugm-3,60,R,ugm-3,0.0,R,ugm-3
01-01-2004,18:00,1.4,R,ugm-3,2.5,R,ugm-3,4.6,R,ugm-3,64,R,ugm-3,0.0,R,ugm-3
01-01-2004,19:00,1.4,R,ugm-3,1.0,R,ugm-3,3.1,R,ugm-3,62,R,ugm-3,0.0,R,ugm-3
01-01-2004,20:00,1.0,R,ugm-3,2.5,R,ugm-3,4.0,R,ugm-3,60,R,ugm-3,0.5,R,ugm-3
01-01-2004,21:00,1.4,R,ugm-3,0.0,R,ugm-3,2.1,R,ugm-3,62,R,ugm-3,1.3,R,ugm-3
01-01-2004,22:00,1.4,R,ugm-3,4.0,R,ugm-3,6.1,R,ugm-3,58,R,ugm-3,2.4,R,ugm-3
01-01-2004,23:00,1.0,R,ugm-3,1.9,R,ugm-3,3.4,R,ugm-3,60,R,ugm-3,2.4,R,ugm-3
01-01-2004,24:00,1.4,R,ugm-3,0.6,R,ugm-3,2.7,R,ugm-3,60,R,ugm-3,2.1,R,ugm-3
02-01-2004,01:00,0.0,R,ugm-3,2.1,R,ugm-3,2.1,R,ugm-3,58,R,ugm-3,1.1,R,ugm-3
02-01-2004,02:00,,,,,,,,,,50,R,ugm-3,0.0,R,ugm-3
02-01-2004,03:00,0.0,R,ugm-3,5.2,R,ugm-3,5.2,R,ugm-3,46,R,ugm-3,1.9,R,ugm-3
02-01-2004,04:00,0.0,R,ugm-3,8.2,R,ugm-3,8.2,R,ugm-3,42,R,ugm-3,2.9,R,ugm-3
02-01-2004,05:00,0.0,R,ugm-3,10.1,R,ugm-3,10.1,R,ugm-3,40,R,ugm-3,3.5,R,ugm-3
02-01-2004,06:00,0.0,R,ugm-3,7.3,R,ugm-3,7.3,R,ugm-3,44,R,ugm-3,4.5,R,ugm-3
02-01-2004,07:00,0.0,R,ugm-3,7.6,R,ugm-3,7.6,R,ugm-3,44,R,ugm-3,4.0,R,ugm-3
02-01-2004,08:00,0.0,R,ugm-3,8.2,R,ugm-3,8.2,R,ugm-3,42,R,ugm-3,2.9,R,ugm-3
02-01-2004,09:00,0.4,R,ugm-3,10.1,R,ugm-3,10.7,R,ugm-3,24,R,ugm-3,0.0,R,ugm-3
02-01-2004,10:00,1.0,R,ugm-3,11.7,R,ugm-3,13.2,R,ugm-3,22,R,ugm-3,1.1,R,ugm-3
02-01-2004,11:00,0.4,R,ugm-3,10.7,R,ugm-3,11.3,R,ugm-3,32,R,ugm-3,2.4,R,ugm-3
02-01-2004,12:00,1.4,R,ugm-3,5.2,R,ugm-3,7.3,R,ugm-3,48,R,ugm-3,2.1,R,ugm-3
02-01-2004,13:00,1.0,R,ugm-3,4.6,R,ugm-3,6.1,R,ugm-3,44,R,ugm-3,2.4,R,ugm-3
02-01-2004,14:00,2.0,R,ugm-3,6.1,R,ugm-3,9.2,R,ugm-3,36,R,ugm-3,2.4,R,ugm-3
02-01-2004,15:00,0.6,R,ugm-3,8.6,R,ugm-3,9.6,R,ugm-3,38,R,ugm-3,2.4,R,ugm-3
02-01-2004,16:00,0.0,R,ugm-3,11.3,R,ugm-3,11.3,R,ugm-3,36,R,ugm-3,2.7,R,ugm-3
02-01-2004,17:00,0.0,R,ugm-3,11.3,R,ugm-3,11.3,R,ugm-3,38,R,ugm-3,2.4,R,ugm-3
02-01-2004,18:00,0.0,R,ugm-3,7.6,R,ugm-3,7.6,R,ugm-3,48,R,ugm-3,0.5,R,ugm-3
02-01-2004,19:00,0.0,R,ugm-3,10.1,R,ugm-3,10.1,R,ugm-3,44,R,ugm-3,0.0,R,ugm-3
02-01-2004,20:00,0.0,R,ugm-3,12.2,R,ugm-3,12.2,R,ugm-3,38,R,ugm-3,0.8,R,ugm-3
02-01-2004,21:00,0.0,R,ugm-3,12.2,R,ugm-3,12.2,R,ugm-3,40,R,ugm-3,2.1,R,ugm-3
02-01-2004,22:00,0.0,R,ugm-3,11.7,R,ugm-3,11.7,R,ugm-3,44,R,ugm-3,2.4,R,ugm-3
02-01-2004,23:00,0.0,R,ugm-3,14.7,R,ugm-3,14.7,R,ugm-3,38,R,ugm-3,3.5,R,ugm-3
02-01-2004,24:00,0.4,R,ugm-3,17.8,R,ugm-3,18.3,R,ugm-3,32,R,ugm-3,4.5,R,ugm-3
03-01-2004,01:00,0.0,R,ugm-3,19.1,R,ugm-3,19.1,R,ugm-3,28,R,ugm-3,4.5,R,ugm-3
03-01-2004,02:00,,,,,,,,,,26,R,ugm-3,2.7,R,ugm-3
03-01-2004,03:00,0.0,R,ugm-3,18.9,R,ugm-3,18.9,R,ugm-3,22,R,ugm-3,2.7,R,ugm-3
03-01-2004,04:00,0.0,R,ugm-3,18.3,R,ugm-3,18.3,R,ugm-3,22,R,ugm-3,2.4,R,ugm-3
03-01-2004,05:00,0.4,R,ugm-3,16.2,R,ugm-3,16.8,R,ugm-3,24,R,ugm-3,2.4,R,ugm-3
03-01-2004,06:00,0.4,R,ugm-3,15.3,R,ugm-3,15.9,R,ugm-3,24,R,ugm-3,2.4,R,ugm-3
03-01-2004,07:00,0.0,R,ugm-3,16.4,R,ugm-3,16.4,R,ugm-3,24,R,ugm-3,3.2,R,ugm-3
03-01-2004,08:00,0.0,R,ugm-3,18.9,R,ugm-3,18.9,R,ugm-3,20,R,ugm-3,2.7,R,ugm-3
03-01-2004,09:00,1.4,R,ugm-3,18.3,R,ugm-3,20.4,R,ugm-3,22,R,ugm-3,2.7,R,ugm-3
03-01-2004,10:00,2.0,R,ugm-3,14.3,R,ugm-3,17.4,R,ugm-3,32,R,ugm-3,4.0,R,ugm-3
03-01-2004,11:00,2.6,R,ugm-3,14.9,R,ugm-3,18.9,R,ugm-3,38,R,ugm-3,4.5,R,ugm-3
03-01-2004,12:00,2.6,R,ugm-3,11.3,R,ugm-3,15.3,R,ugm-3,44,R,ugm-3,4.0,R,ugm-3
03-01-2004,13:00,2.6,R,ugm-3,10.9,R,ugm-3,14.9,R,ugm-3,50,R,ugm-3,3.2,R,ugm-3
03-01-2004,14:00,2.4,R,ugm-3,9.7,R,ugm-3,13.4,R,ugm-3,52,R,ugm-3,3.5,R,ugm-3
03-01-2004,15:00,1.4,R,ugm-3,6.5,R,ugm-3,8.6,R,ugm-3,58,R,ugm-3,2.1,R,ugm-3
03-01-2004,16:00,0.0,R,ugm-3,6.1,R,ugm-3,6.1,R,ugm-3,58,R,ugm-3,1.1,R,ugm-3
03-01-2004,17:00,0.0,R,ugm-3,9.7,R,ugm-3,9.7,R,ugm-3,52,R,ugm-3,3.2,R,ugm-3
03-01-2004,18:00,0.0,R,ugm-3,12.2,R,ugm-3,12.2,R,ugm-3,50,R,ugm-3,10.9,R,ugm-3
03-01-2004,19:00,0.0,R,ugm-3,17.4,R,ugm-3,17.4,R,ugm-3,42,R,ugm-3,18.6,R,ugm-3
03-01-2004,20:00,0.0,R,ugm-3,10.1,R,ugm-3,10.1,R,ugm-3,52,R,ugm-3,4.5,R,ugm-3
03-01-2004,21:00,0.0,R,ugm-3,7.6,R,ugm-3,7.6,R,ugm-3,48,R,ugm-3,4.3,R,ugm-3
03-01-2004,22:00,0.0,R,ugm-3,10.7,R,ugm-3,10.7,R,ugm-3,44,R,ugm-3,6.4,R,ugm-3
03-01-2004,23:00,0.0,R,ugm-3,7.6,R,ugm-3,7.6,R,ugm-3,42,R,ugm-3,5.1,R,ugm-3
03-01-2004,24:00,0.0,R,ugm-3,6.7,R,ugm-3,6.7,R,ugm-3,40,R,ugm-3,2.7,R,ugm-3
04-01-2004,01:00,0.0,R,ugm-3,8.2,R,ugm-3,8.2,R,ugm-3,38,R,ugm-3,2.4,R,ugm-3
04-01-2004,02:00,,,,,,,,,,38,R,ugm-3,0.0,R,ugm-3
04-01-2004,03:00,0.0,R,ugm-3,7.1,R,ugm-3,7.1,R,ugm-3,36,R,ugm-3,0.0,R,ugm-3
04-01-2004,04:00,0.0,R,ugm-3,6.7,R,ugm-3,6.7,R,ugm-3,34,R,ugm-3,0.0,R,ugm-3
04-01-2004,05:00,0.0,R,ugm-3,6.7,R,ugm-3,6.7,R,ugm-3,30,R,ugm-3,0.3,R,ugm-3
04-01-2004,06:00,0.0,R,ugm-3,8.2,R,ugm-3,8.2,R,ugm-3,34,R,ugm-3,2.4,R,ugm-3
04-01-2004,07:00,0.0,R,ugm-3,6.7,R,ugm-3,6.7,R,ugm-3,34,R,ugm-3,1.9,R,ugm-3
04-01-2004,08:00,0.0,R,ugm-3,9.2,R,ugm-3,9.2,R,ugm-3,32,R,ugm-3,0.8,R,ugm-3
04-01-2004,09:00,0.0,R,ugm-3,10.1,R,ugm-3,10.1,R,ugm-3,24,R,ugm-3,0.3,R,ugm-3
04-01-2004,10:00,0.0,R,ugm-3,10.1,R,ugm-3,10.1,R,ugm-3,28,R,ugm-3,0.8,R,ugm-3
04-01-2004,11:00,2.4,R,ugm-3,8.2,R,ugm-3,11.8,R,ugm-3,32,R,ugm-3,2.1,R,ugm-3
04-01-2004,12:00,3.4,R,ugm-3,11.3,R,ugm-3,16.4,R,ugm-3,30,R,ugm-3,2.4,R,ugm-3
04-01-2004,13:00,3.0,R,ugm-3,14.9,R,ugm-3,19.5,R,ugm-3,30,R,ugm-3,2.4,R,ugm-3
04-01-2004,14:00,2.6,R,ugm-3,14.3,R,ugm-3,18.3,R,ugm-3,30,R,ugm-3,2.4,R,ugm-3
04-01-2004,15:00,2.0,R,ugm-3,13.2,R,ugm-3,16.2,R,ugm-3,32,R,ugm-3,2.4,R,ugm-3
04-01-2004,16:00,0.8,R,ugm-3,19.3,R,ugm-3,20.4,R,ugm-3,26,R,ugm-3,2.4,R,ugm-3
04-01-2004,17:00,0.0,R,ugm-3,24.4,R,ugm-3,24.4,R,ugm-3,20,R,ugm-3,3.2,R,ugm-3
04-01-2004,18:00,0.0,R,ugm-3,21.4,R,ugm-3,21.4,R,ugm-3,26,R,ugm-3,3.7,R,ugm-3
04-01-2004,19:00,0.0,R,ugm-3,21.4,R,ugm-3,21.4,R,ugm-3,22,R,ugm-3,3.5,R,ugm-3
04-01-2004,20:00,0.0,R,ugm-3,30.0,R,ugm-3,30.0,R,ugm-3,14,R,ugm-3,3.7,R,ugm-3
04-01-2004,21:00,3.4,R,ugm-3,42.8,R,ugm-3,47.9,R,ugm-3,4,R,ugm-3,5.9,R,ugm-3
04-01-2004,22:00,2.4,R,ugm-3,38.8,R,ugm-3,42.4,R,ugm-3,10,R,ugm-3,2.4,R,ugm-3
04-01-2004,23:00,0.0,R,ugm-3,28.5,R,ugm-3,28.5,R,ugm-3,30,R,ugm-3,2.4,R,ugm-3
04-01-2004,24:00,0.0,R,ugm-3,31.1,R,ugm-3,31.1,R,ugm-3,24,R,ugm-3,1.9,R,ugm-3
05-01-2004,01:00,6.8,R,ugm-3,42.0,R,ugm-3,52.3,R,ugm-3,6,R,ugm-3,3.2,R,ugm-3
05-01-2004,02:00,,,,,,,,,,34,R,ugm-3,2.4,R,ugm-3
05-01-2004,03:00,1.0,R,ugm-3,18.9,R,ugm-3,20.4,R,ugm-3,40,R,ugm-3,2.4,R,ugm-3
05-01-2004,04:00,1.4,R,ugm-3,17.2,R,ugm-3,19.3,R,ugm-3,40,R,ugm-3,2.4,R,ugm-3
05-01-2004,05:00,1.4,R,ugm-3,19.3,R,ugm-3,21.4,R,ugm-3,36,R,ugm-3,2.4,R,ugm-3
05-01-2004,06:00,1.4,R,ugm-3,11.1,R,ugm-3,13.2,R,ugm-3,44,R,ugm-3,2.4,R,ugm-3
05-01-2004,07:00,1.4,R,ugm-3,5.5,R,ugm-3,7.6,R,ugm-3,48,R,ugm-3,2.4,R,ugm-3
05-01-2004,08:00,1.4,R,ugm-3,8.0,R,ugm-3,10.1,R,ugm-3,46,R,ugm-3,2.4,R,ugm-3
05-01-2004,09:00,1.4,R,ugm-3,6.5,R,ugm-3,8.6,R,ugm-3,62,R,ugm-3,0.8,R,ugm-3
05-01-2004,10:00,1.4,R,ugm-3,5.5,R,ugm-3,7.6,R,ugm-3,72,R,ugm-3,1.3,R,ugm-3
05-01-2004,11:00,1.4,R,ugm-3,0.6,R,ugm-3,2.7,R,ugm-3,76,R,ugm-3,0.0,R,ugm-3
05-01-2004,12:00,1.4,R,ugm-3,1.0,R,ugm-3,3.1,R,ugm-3,78,R,ugm-3,0.0,R,ugm-3
05-01-2004,13:00,1.4,R,ugm-3,3.1,R,ugm-3,5.2,R,ugm-3,74,R,ugm-3,0.0,R,ugm-3
05-01-2004,14:00,1.4,R,ugm-3,1.0,R,ugm-3,3.1,R,ugm-3,74,R,ugm-3,0.0,R,ugm-3
05-01-2004,15:00,1.4,R,ugm-3,4.6,R,ugm-3,6.7,R,ugm-3,68,R,ugm-3,0.3,R,ugm-3
05-01-2004,16:00,1.4,R,ugm-3,11.3,R,ugm-3,13.4,R,ugm-3,58,R,ugm-3,2.1,R,ugm-3
05-01-2004,17:00,1.4,R,ugm-3,4.6,R,ugm-3,6.7,R,ugm-3,66,R,ugm-3,0.8,R,ugm-3
05-01-2004,18:00,1.4,R,ugm-3,4.0,R,ugm-3,6.1,R,ugm-3,64,R,ugm-3,0.8,R,ugm-3
05-01-2004,19:00,1.4,R,ugm-3,12.8,R,ugm-3,14.9,R,ugm-3,50,R,ugm-3,4.0,R,ugm-3
05-01-2004,20:00,1.4,R,ugm-3,7.1,R,ugm-3,9.2,R,ugm-3,56,R,ugm-3,2.7,R,ugm-3
05-01-2004,21:00,1.8,R,ugm-3,7.4,R,ugm-3,10.1,R,ugm-3,52,R,ugm-3,2.4,R,ugm-3
05-01-2004,22:00,1.4,R,ugm-3,7.6,R,ugm-3,9.7,R,ugm-3,48,R,ugm-3,1.6,R,ugm-3
05-01-2004,23:00,1.4,R,ugm-3,2.5,R,ugm-3,4.6,R,ugm-3,54,R,ugm-3,0.3,R,ugm-3
05-01-2004,24:00,1.4,R,ugm-3,1.0,R,ugm-3,3.1,R,ugm-3,56,R,ugm-3,0.0,R,ugm-3
06-01-2004,01:00,0.0,R,ugm-3,2.1,R,ugm-3,2.1,R,ugm-3,66,R,ugm-3,1.1,R,ugm-3
06-01-2004,02:00,,,,,,,,,,60,R,ugm-3,1.1,R,ugm-3
06-01-2004,03:00,0.0,R,ugm-3,3.1,R,ugm-3,3.1,R,ugm-3,60,R,ugm-3,1.1,R,ugm-3
06-01-2004,04:00,0.0,R,ugm-3,3.6,R,ugm-3,3.6,R,ugm-3,62,R,ugm-3,1.1,R,ugm-3
06-01-2004,05:00,0.0,R,ugm-3,3.6,R,ugm-3,3.6,R,ugm-3,60,R,ugm-3,1.1,R,ugm-3
06-01-2004,06:00,0.0,R,ugm-3,3.1,R,ugm-3,3.1,R,ugm-3,68,R,ugm-3,1.6,R,ugm-3
06-01-2004,07:00,0.0,R,ugm-3,7.3,R,ugm-3,7.3,R,ugm-3,66,R,ugm-3,3.2,R,ugm-3
06-01-2004,08:00,0.0,R,ugm-3,3.6,R,ugm-3,3.6,R,ugm-3,74,R,ugm-3,1.9,R,ugm-3
06-01-2004,09:00,0.0,R,ugm-3,4.2,R,ugm-3,4.2,R,ugm-3,74,R,ugm-3,2.1,R,ugm-3
06-01-2004,10:00,0.0,R,ugm-3,2.7,R,ugm-3,2.7,R,ugm-3,78,R,ugm-3,1.3,R,ugm-3
06-01-2004,11:00,0.0,R,ugm-3,1.5,R,ugm-3,1.5,R,ugm-3,78,R,ugm-3,1.1,R,ugm-3
06-01-2004,12:00,0.0,R,ugm-3,4.6,R,ugm-3,4.6,R,ugm-3,70,R,ugm-3,1.6,R,ugm-3
06-01-2004,13:00,0.4,R,ugm-3,6.7,R,ugm-3,7.3,R,ugm-3,68,R,ugm-3,1.1,R,ugm-3
06-01-2004,14:00,0.0,R,ugm-3,2.7,R,ugm-3,2.7,R,ugm-3,80,R,ugm-3,1.1,R,ugm-3
06-01-2004,15:00,0.4,R,ugm-3,2.1,R,ugm-3,2.7,R,ugm-3,82,R,ugm-3,1.1,R,ugm-3
06-01-2004,16:00,0.0,R,ugm-3,2.7,R,ugm-3,2.7,R,ugm-3,80,R,ugm-3,1.1,R,ugm-3
06-01-2004,17:00,0.0,R,ugm-3,5.2,R,ugm-3,5.2,R,ugm-3,74,R,ugm-3,1.1,R,ugm-3
06-01-2004,18:00,0.0,R,ugm-3,4.0,R,ugm-3,4.0,R,ugm-3,76,R,ugm-3,1.1,R,ugm-3
06-01-2004,19:00,0.0,R,ugm-3,3.6,R,ugm-3,3.6,R,ugm-3,74,R,ugm-3,1.6,R,ugm-3
06-01-2004,20:00,0.0,R,ugm-3,5.2,R,ugm-3,5.2,R,ugm-3,72,R,ugm-3,1.1,R,ugm-3
06-01-2004,21:00,0.0,R,ugm-3,5.5,R,ugm-3,5.5,R,ugm-3,72,R,ugm-3,1.1,R,ugm-3
06-01-2004,22:00,0.0,R,ugm-3,9.2,R,ugm-3,9.2,R,ugm-3,64,R,ugm-3,2.9,R,ugm-3
06-01-2004,23:00,0.0,R,ugm-3,9.2,R,ugm-3,9.2,R,ugm-3,60,R,ugm-3,3.5,R,ugm-3
06-01-2004,24:00,0.0,R,ugm-3,9.2,R,ugm-3,9.2,R,ugm-3,58,R,ugm-3,3.7,R,ugm-3
07-01-2004,01:00,0.0,R,ugm-3,9.6,R,ugm-3,9.6,R,ugm-3,62,R,ugm-3,2.4,R,ugm-3
07-01-2004,02:00,,,,,,,,,,58,R,ugm-3,3.5,R,ugm-3
07-01-2004,03:00,0.0,R,ugm-3,5.5,R,ugm-3,5.5,R,ugm-3,60,R,ugm-3,0.3,R,ugm-3
07-01-2004,04:00,0.0,R,ugm-3,5.5,R,ugm-3,5.5,R,ugm-3,58,R,ugm-3,0.5,R,ugm-3
07-01-2004,05:00,0.0,R,ugm-3,17.0,R,ugm-3,17.0,R,ugm-3,44,R,ugm-3,3.7,R,ugm-3
07-01-2004,06:00,0.0,R,ugm-3,10.3,R,ugm-3,10.3,R,ugm-3,52,R,ugm-3,1.9,R,ugm-3
07-01-2004,07:00,0.0,R,ugm-3,6.7,R,ugm-3,6.7,R,ugm-3,62,R,ugm-3,0.5,R,ugm-3
07-01-2004,08:00,0.0,R,ugm-3,4.0,R,ugm-3,4.0,R,ugm-3,72,R,ugm-3,1.3,R,ugm-3
07-01-2004,09:00,0.0,R,ugm-3,2.5,R,ugm-3,2.5,R,ugm-3,76,R,ugm-3,0.5,R,ugm-3
07-01-2004,10:00,0.0,R,ugm-3,5.2,R,ugm-3,5.2,R,ugm-3,72,R,ugm-3,0.8,R,ugm-3
07-01-2004,11:00,,,,,,,,,,,,,,,
07-01-2004,12:00,2.3,R,ugm-3,6.7,R,ugm-3,10.1,R,ugm-3,64,R,ugm-3,2.4,R,ugm-3
07-01-2004,13:00,1.0,R,ugm-3,6.1,R,ugm-3,7.6,R,ugm-3,66,R,ugm-3,2.9,R,ugm-3
07-01-2004,14:00,1.4,R,ugm-3,5.2,R,ugm-3,7.3,R,ugm-3,70,R,ugm-3,2.1,R,ugm-3
07-01-2004,15:00,0.4,R,ugm-3,4.6,R,ugm-3,5.2,R,ugm-3,72,R,ugm-3,1.1,R,ugm-3
07-01-2004,16:00,0.0,R,ugm-3,4.6,R,ugm-3,4.6,R,ugm-3,72,R,ugm-3,0.3,R,ugm-3
07-01-2004,17:00,0.0,R,ugm-3,11.8,R,ugm-3,11.8,R,ugm-3,64,R,ugm-3,8.2,R,ugm-3
07-01-2004,18:00,0.0,R,ugm-3,8.8,R,ugm-3,8.8,R,ugm-3,64,R,ugm-3,10.6,R,ugm-3
07-01-2004,19:00,0.0,R,ugm-3,6.7,R,ugm-3,6.7,R,ugm-3,66,R,ugm-3,4.5,R,ugm-3
07-01-2004,20:00,0.0,R,ugm-3,10.9,R,ugm-3,10.9,R,ugm-3,58,R,ugm-3,7.2,R,ugm-3
07-01-2004,21:00,0.0,R,ugm-3,10.7,R,ugm-3,10.7,R,ugm-3,54,R,ugm-3,4.8,R,ugm-3
07-01-2004,22:00,0.0,R,ugm-3,8.8,R,ugm-3,8.8,R,ugm-3,52,R,ugm-3,2.7,R,ugm-3
07-01-2004,23:00,0.0,R,ugm-3,9.2,R,ugm-3,9.2,R,ugm-3,48,R,ugm-3,4.5,R,ugm-3
07-01-2004,24:00,0.0,R,ugm-3,9.2,R,ugm-3,9.2,R,ugm-3,48,R,ugm-3,2.9,R,ugm-3
08-01-2004,01:00,1.4,R,ugm-3,8.2,R,ugm-3,10.3,R,ugm-3,48,R,ugm-3,4.5,R,ugm-3
08-01-2004,02:00,,,,,,,,,,50,R,ugm-3,4.5,R,ugm-3
08-01-2004,03:00,1.4,R,ugm-3,5.5,R,ugm-3,7.6,R,ugm-3,50,R,ugm-3,4.5,R,ugm-3
08-01-2004,04:00,1.4,R,ugm-3,4.6,R,ugm-3,6.7,R,ugm-3,52,R,ugm-3,3.5,R,ugm-3
08-01-2004,05:00,1.4,R,ugm-3,4.0,R,ugm-3,6.1,R,ugm-3,56,R,ugm-3,2.9,R,ugm-3
08-01-2004,06:00,1.4,R,ugm-3,2.5,R,ugm-3,4.6,R,ugm-3,58,R,ugm-3,2.9,R,ugm-3
08-01-2004,07:00,1.4,R,ugm-3,5.5,R,ugm-3,7.6,R,ugm-3,58,R,ugm-3,4.5,R,ugm-3
08-01-2004,08:00,1.4,R,ugm-3,4.6,R,ugm-3,6.7,R,ugm-3,62,R,ugm-3,4.5,R,ugm-3
08-01-2004,09:00,1.4,R,ugm-3,5.5,R,ugm-3,7.6,R,ugm-3,64,R,ugm-3,5.6,R,ugm-3
08-01-2004,10:00,1.0,R,ugm-3,5.2,R,ugm-3,6.7,R,ugm-3,64,R,ugm-3,4.0,R,ugm-3
08-01-2004,11:00,1.4,R,ugm-3,3.1,R,ugm-3,5.2,R,ugm-3,68,R,ugm-3,1.6,R,ugm-3
08-01-2004,12:00,1.4,R,ugm-3,4.6,R,ugm-3,6.7,R,ugm-3,64,R,ugm-3,1.1,R,ugm-3
08-01-2004,13:00,1.8,R,ugm-3,6.1,R,ugm-3,8.8,R,ugm-3,64,R,ugm-3,2.1,R,ugm-3
08-01-2004,14:00,1.4,R,ugm-3,3.4,R,ugm-3,5.5,R,ugm-3,88,R,ugm-3,1.3,R,ugm-3
08-01-2004,15:00,1.4,R,ugm-3,1.9,R,ugm-3,4.0,R,ugm-3,92,R,ugm-3,1.1,R,ugm-3
08-01-2004,16:00,1.4,R,ugm-3,1.5,R,ugm-3,3.6,R,ugm-3,98,R,ugm-3,1.1,R,ugm-3
08-01-2004,17:00,1.4,R,ugm-3,1.9,R,ugm-3,4.0,R,ugm-3,92,R,ugm-3,1.3,R,ugm-3
08-01-2004,18:00,1.4,R,ugm-3,1.9,R,ugm-3,4.0,R,ugm-3,90,R,ugm-3,1.1,R,ugm-3
08-01-2004,19:00,1.4,R,ugm-3,1.9,R,ugm-3,4.0,R,ugm-3,88,R,ugm-3,1.9,R,ugm-3
08-01-2004,20:00,1.4,R,ugm-3,1.0,R,ugm-3,3.1,R,ugm-3,92,R,ugm-3,1.1,R,ugm-3
08-01-2004,21:00,1.4,R,ugm-3,1.0,R,ugm-3,3.1,R,ugm-3,96,R,ugm-3,1.1,R,ugm-3
08-01-2004,22:00,1.4,R,ugm-3,1.9,R,ugm-3,4.0,R,ugm-3,90,R,ugm-3,1.1,R,ugm-3
08-01-2004,23:00,1.4,R,ugm-3,0.0,R,ugm-3,2.1,R,ugm-3,90,R,ugm-3,1.1,R,ugm-3
08-01-2004,24:00,1.0,R,ugm-3,2.1,R,ugm-3,3.6,R,ugm-3,88,R,ugm-3,1.9,R,ugm-3
09-01-2004,01:00,0.0,R,ugm-3,2.7,R,ugm-3,2.7,R,ugm-3,96,R,ugm-3,1.1,R,ugm-3
09-01-2004,02:00,,,,,,,,,,94,R,ugm-3,1.1,R,ugm-3
09-01-2004,03:00,0.0,R,ugm-3,1.1,R,ugm-3,1.1,R,ugm-3,92,R,ugm-3,1.1,R,ugm-3
09-01-2004,04:00,0.0,R,ugm-3,2.7,R,ugm-3,2.7,R,ugm-3,92,R,ugm-3,1.1,R,ugm-3
09-01-2004,05:00,0.0,R,ugm-3,1.1,R,ugm-3,1.1,R,ugm-3,92,R,ugm-3,1.1,R,ugm-3
09-01-2004,06:00,0.0,R,ugm-3,1.5,R,ugm-3,1.5,R,ugm-3,92,R,ugm-3,1.1,R,ugm-3
09-01-2004,07:00,0.0,R,ugm-3,4.6,R,ugm-3,4.6,R,ugm-3,90,R,ugm-3,1.3,R,ugm-3
09-01-2004,08:00,0.0,R,ugm-3,4.6,R,ugm-3,4.6,R,ugm-3,88,R,ugm-3,1.1,R,ugm-3
09-01-2004,09:00,0.0,R,ugm-3,11.3,R,ugm-3,11.3,R,ugm-3,80,R,ugm-3,3.2,R,ugm-3
09-01-2004,10:00,0.4,R,ugm-3,4.0,R,ugm-3,4.6,R,ugm-3,86,R,ugm-3,1.3,R,ugm-3
09-01-2004,11:00,0.0,R,ugm-3,4.6,R,ugm-3,4.6,R,ugm-3,86,R,ugm-3,1.1,R,ugm-3
09-01-2004,12:00,0.0,R,ugm-3,4.6,R,ugm-3,4.6,R,ugm-3,88,R,ugm-3,1.1,R,ugm-3
09-01-2004,13:00,1.0,R,ugm-3,6.7,R,ugm-3,8.2,R,ugm-3,82,R,ugm-3,2.7,R,ugm-3
09-01-2004,14:00,0.4,R,ugm-3,7.6,R,ugm-3,8.2,R,ugm-3,82,R,ugm-3,2.9,R,ugm-3
09-01-2004,15:00,0.0,R,ugm-3,5.2,R,ugm-3,5.2,R,ugm-3,84,R,ugm-3,1.1,R,ugm-3
09-01-2004,16:00,0.0,R,ugm-3,4.0,R,ugm-3,4.0,R,ugm-3,84,R,ugm-3,1.1,R,ugm-3
09-01-2004,17:00,0.0,R,ugm-3,7.1,R,ugm-3,7.1,R,ugm-3,76,R,ugm-3,1.1,R,ugm-3
09-01-2004,18:00,0.0,R,ugm-3,16.4,R,ugm-3,16.4,R,ugm-3,64,R,ugm-3,1.1,R,ugm-3
09-01-2004,19:00,0.0,R,ugm-3,22.5,R,ugm-3,22.5,R,ugm-3,54,R,ugm-3,1.3,R,ugm-3
09-01-2004,20:00,0.0,R,ugm-3,30.8,R,ugm-3,30.8,R,ugm-3,40,R,ugm-3,1.9,R,ugm-3
09-01-2004,21:00,0.0,R,ugm-3,37.2,R,ugm-3,37.2,R,ugm-3,30,R,ugm-3,3.5,R,ugm-3
09-01-2004,22:00,0.0,R,ugm-3,39.3,R,ugm-3,39.3,R,ugm-3,24,R,ugm-3,4.3,R,ugm-3
09-01-2004,23:00,0.0,R,ugm-3,31.7,R,ugm-3,31.7,R,ugm-3,34,R,ugm-3,4.5,R,ugm-3
09-01-2004,24:00,0.4,R,ugm-3,26.5,R,ugm-3,27.1,R,ugm-3,36,R,ugm-3,3.5,R,ugm-3
10-01-2004,01:00,0.0,R,ugm-3,22.5,R,ugm-3,22.5,R,ugm-3,42,R,ugm-3,2.4,R,ugm-3
10-01-2004,02:00,,,,,,,,,,42,R,ugm-3,3.5,R,ugm-3
10-01-2004,03:00,0.0,R,ugm-3,13.8,R,ugm-3,13.8,R,ugm-3,48,R,ugm-3,2.4,R,ugm-3
10-01-2004,04:00,0.0,R,ugm-3,8.2,R,ugm-3,8.2,R,ugm-3,60,R,ugm-3,0.5,R,ugm-3
10-01-2004,05:00,0.0,R,ugm-3,5.5,R,ugm-3,5.5,R,ugm-3,68,R,ugm-3,0.5,R,ugm-3
10-01-2004,06:00,0.0,R,ugm-3,11.8,R,ugm-3,11.8,R,ugm-3,56,R,ugm-3,2.1,R,ugm-3
10-01-2004,07:00,0.0,R,ugm-3,7.1,R,ugm-3,7.1,R,ugm-3,62,R,ugm-3,1.9,R,ugm-3
10-01-2004,08:00,0.0,R,ugm-3,6.7,R,ugm-3,6.7,R,ugm-3,64,R,ugm-3,1.1,R,ugm-3
10-01-2004,09:00,0.0,R,ugm-3,5.2,R,ugm-3,5.2,R,ugm-3,70,R,ugm-3,0.0,R,ugm-3
10-01-2004,10:00,0.0,R,ugm-3,5.5,R,ugm-3,5.5,R,ugm-3,76,R,ugm-3,0.5,R,ugm-3
10-01-2004,11:00,0.0,R,ugm-3,9.2,R,ugm-3,9.2,R,ugm-3,64,R,ugm-3,1.6,R,ugm-3
10-01-2004,12:00,0.4,R,ugm-3,11.7,R,ugm-3,12.2,R,ugm-3,58,R,ugm-3,2.7,R,ugm-3
10-01-2004,13:00,0.0,R,ugm-3,8.2,R,ugm-3,8.2,R,ugm-3,64,R,ugm-3,0.3,R,ugm-3
10-01-2004,14:00,0.0,R,ugm-3,4.0,R,ugm-3,4.0,R,ugm-3,70,R,ugm-3,0.0,R,ugm-3
10-01-2004,15:00,0.0,R,ugm-3,6.7,R,ugm-3,6.7,R,ugm-3,66,R,ugm-3,0.5,R,ugm-3
10-01-2004,16:00,0.0,R,ugm-3,8.8,R,ugm-3,8.8,R,ugm-3,66,R,ugm-3,0.8,R,ugm-3
10-01-2004,17:00,0.0,R,ugm-3,8.8,R,ugm-3,8.8,R,ugm-3,66,R,ugm-3,2.4,R,ugm-3
10-01-2004,18:00,0.0,R,ugm-3,5.5,R,ugm-3,5.5,R,ugm-3,68,R,ugm-3,1.3,R,ugm-3
10-01-2004,19:00,0.0,R,ugm-3,6.1,R,ugm-3,6.1,R,ugm-3,66,R,ugm-3,1.1,R,ugm-3
10-01-2004,20:00,0.0,R,ugm-3,6.1,R,ugm-3,6.1,R,ugm-3,62,R,ugm-3,0.8,R,ugm-3
10-01-2004,21:00,0.0,R,ugm-3,5.2,R,ugm-3,5.2,R,ugm-3,58,R,ugm-3,0.3,R,ugm-3
10-01-2004,22:00,0.0,R,ugm-3,7.3,R,ugm-3,7.3,R,ugm-3,56,R,ugm-3,1.1,R,ugm-3
10-01-2004,23:00,0.0,R,ugm-3,6.7,R,ugm-3,6.7,R,ugm-3,56,R,ugm-3,2.1,R,ugm-3
10-01-2004,24:00,0.0,R,ugm-3,7.6,R,ugm-3,7.6,R,ugm-3,54,R,ugm-3,1.6,R,ugm-3
11-01-2004,01:00,0.0,R,ugm-3,7.4,R,ugm-3,7.4,R,ugm-3,54,R,ugm-3,2.4,R,ugm-3
11-01-2004,02:00,,,,,,,,,,60,R,ugm-3,1.1,R,ugm-3
11-01-2004,03:00,0.0,R,ugm-3,8.8,R,ugm-3,8.8,R,ugm-3,50,R,ugm-3,2.1,R,ugm-3
11-01-2004,04:00,0.0,R,ugm-3,7.3,R,ugm-3,7.3,R,ugm-3,50,R,ugm-3,0.5,R,ugm-3
11-01-2004,05:00,0.0,R,ugm-3,4.6,R,ugm-3,4.6,R,ugm-3,56,R,ugm-3,0.3,R,ugm-3
11-01-2004,06:00,0.0,R,ugm-3,5.2,R,ugm-3,5.2,R,ugm-3,56,R,ugm-3,0.0,R,ugm-3
11-01-2004,07:00,0.0,R,ugm-3,3.6,R,ugm-3,3.6,R,ugm-3,58,R,ugm-3,0.0,R,ugm-3
11-01-2004,08:00,0.0,R,ugm-3,3.1,R,ugm-3,3.1,R,ugm-3,60,R,ugm-3,0.0,R,ugm-3
11-01-2004,09:00,0.0,R,ugm-3,3.6,R,ugm-3,3.6,R,ugm-3,68,R,ugm-3,0.0,R,ugm-3
11-01-2004,10:00,0.0,R,ugm-3,1.5,R,ugm-3,1.5,R,ugm-3,80,R,ugm-3,0.0,R,ugm-3
11-01-2004,11:00,0.0,R,ugm-3,4.0,R,ugm-3,4.0,R,ugm-3,80,R,ugm-3,0.0,R,ugm-3
11-01-2004,12:00,0.0,R,ugm-3,2.5,R,ugm-3,2.5,R,ugm-3,84,R,ugm-3,0.0,R,ugm-3
11-01-2004,13:00,0.0,R,ugm-3,1.5,R,ugm-3,1.5,R,ugm-3,90,R,ugm-3,0.0,R,ugm-3
11-01-2004,14:00,0.0,R,ugm-3,1.1,R,ugm-3,1.1,R,ugm-3,92,R,ugm-3,0.0,R,ugm-3
11-01-2004,15:00,0.0,R,ugm-3,4.0,R,ugm-3,4.0,R,ugm-3,90,R,ugm-3,0.0,R,ugm-3
11-01-2004,16:00,0.0,R,ugm-3,2.1,R,ugm-3,2.1,R,ugm-3,92,R,ugm-3,0.0,R,ugm-3
11-01-2004,17:00,0.0,R,ugm-3,2.1,R,ugm-3,2.1,R,ugm-3,92,R,ugm-3,0.0,R,ugm-3
11-01-2004,18:00,0.0,R,ugm-3,0.6,R,ugm-3,0.6,R,ugm-3,92,R,ugm-3,0.0,R,ugm-3
11-01-2004,19:00,0.0,R,ugm-3,0.6,R,ugm-3,0.6,R,ugm-3,92,R,ugm-3,0.0,R,ugm-3
11-01-2004,20:00,0.0,R,ugm-3,0.6,R,ugm-3,0.6,R,ugm-3,90,R,ugm-3,0.0,R,ugm-3
11-01-2004,21:00,0.0,R,ugm-3,1.5,R,ugm-3,1.5,R,ugm-3,92,R,ugm-3,0.0,R,ugm-3
11-01-2004,22:00,0.0,R,ugm-3,2.1,R,ugm-3,2.1,R,ugm-3,90,R,ugm-3,0.3,R,ugm-3
11-01-2004,23:00,0.0,R,ugm-3,4.6,R,ugm-3,4.6,R,ugm-3,86,R,ugm-3,4.8,R,ugm-3
11-01-2004,24:00,0.0,R,ugm-3,3.6,R,ugm-3,3.6,R,ugm-3,86,R,ugm-3,1.3,R,ugm-3
12-01-2004,01:00,1.4,R,ugm-3,0.0,R,ugm-3,2.1,R,ugm-3,92,R,ugm-3,0.0,R,ugm-3
12-01-2004,02:00,,,,,,,,,,92,R,ugm-3,0.0,R,ugm-3
12-01-2004,03:00,1.4,R,ugm-3,2.1,R,ugm-3,4.2,R,ugm-3,92,R,ugm-3,0.3,R,ugm-3
12-01-2004,04:00,1.4,R,ugm-3,1.9,R,ugm-3,4.0,R,ugm-3,92,R,ugm-3,0.5,R,ugm-3
12-01-2004,05:00,1.4,R,ugm-3,3.4,R,ugm-3,5.5,R,ugm-3,94,R,ugm-3,0.0,R,ugm-3
12-01-2004,06:00,1.4,R,ugm-3,2.5,R,ugm-3,4.6,R,ugm-3,92,R,ugm-3,0.0,R,ugm-3
12-01-2004,07:00,1.4,R,ugm-3,0.0,R,ugm-3,2.1,R,ugm-3,90,R,ugm-3,0.0,R,ugm-3
12-01-2004,08:00,1.4,R,ugm-3,1.0,R,ugm-3,3.1,R,ugm-3,86,R,ugm-3,0.0,R,ugm-3
12-01-2004,09:00,1.4,R,ugm-3,2.5,R,ugm-3,4.6,R,ugm-3,84,R,ugm-3,0.0,R,ugm-3
12-01-2004,10:00,1.4,R,ugm-3,3.4,R,ugm-3,5.5,R,ugm-3,80,R,ugm-3,0.0,R,ugm-3
12-01-2004,11:00,1.4,R,ugm-3,5.5,R,ugm-3,7.6,R,ugm-3,76,R,ugm-3,0.8,R,ugm-3
12-01-2004,12:00,1.4,R,ugm-3,2.5,R,ugm-3,4.6,R,ugm-3,80,R,ugm-3,0.0,R,ugm-3
12-01-2004,13:00,1.4,R,ugm-3,4.6,R,ugm-3,6.7,R,ugm-3,72,R,ugm-3,0.0,R,ugm-3
12-01-2004,14:00,2.8,R,ugm-3,7.6,R,ugm-3,11.8,R,ugm-3,68,R,ugm-3,0.0,R,ugm-3
12-01-2004,15:00,4.0,R,ugm-3,22.3,R,ugm-3,28.5,R,ugm-3,56,R,ugm-3,0.5,R,ugm-3
12-01-2004,16:00,1.8,R,ugm-3,15.7,R,ugm-3,18.3,R,ugm-3,62,R,ugm-3,0.3,R,ugm-3
12-01-2004,17:00,1.9,R,ugm-3,16.8,R,ugm-3,19.7,R,ugm-3,56,R,ugm-3,0.0,R,ugm-3
12-01-2004,18:00,1.4,R,ugm-3,16.2,R,ugm-3,18.3,R,ugm-3,64,R,ugm-3,4.8,R,ugm-3
12-01-2004,19:00,1.4,R,ugm-3,6.1,R,ugm-3,8.2,R,ugm-3,76,R,ugm-3,3.7,R,ugm-3
12-01-2004,20:00,1.4,R,ugm-3,5.2,R,ugm-3,7.3,R,ugm-3,78,R,ugm-3,0.8,R,ugm-3
12-01-2004,21:00,1.4,R,ugm-3,2.1,R,ugm-3,4.2,R,ugm-3,86,R,ugm-3,0.0,R,ugm-3
12-01-2004,22:00,1.4,R,ugm-3,4.0,R,ugm-3,6.1,R,ugm-3,84,R,ugm-3,1.3,R,ugm-3
12-01-2004,23:00,1.4,R,ugm-3,3.1,R,ugm-3,5.2,R,ugm-3,84,R,ugm-3,1.1,R,ugm-3
12-01-2004,24:00,1.4,R,ugm-3,3.6,R,ugm-3,5.7,R,ugm-3,80,R,ugm-3,1.1,R,ugm-3
13-01-2004,01:00,0.0,R,ugm-3,6.1,R,ugm-3,6.1,R,ugm-3,74,R,ugm-3,0.0,R,ugm-3
13-01-2004,02:00,,,,,,,,,,72,R,ugm-3,0.0,R,ugm-3
13-01-2004,03:00,0.4,R,ugm-3,2.1,R,ugm-3,2.7,R,ugm-3,72,R,ugm-3,,,
13-01-2004,04:00,0.0,R,ugm-3,2.1,R,ugm-3,2.1,R,ugm-3,84,R,ugm-3,,,
13-01-2004,05:00,0.0,R,ugm-3,3.1,R,ugm-3,3.1,R,ugm-3,88,R,ugm-3,,,
13-01-2004,06:00,0.4,R,ugm-3,4.0,R,ugm-3,4.6,R,ugm-3,90,R,ugm-3,,,
13-01-2004,07:00,0.0,R,ugm-3,2.7,R,ugm-3,2.7,R,ugm-3,90,R,ugm-3,0.0,R,ugm-3
13-01-2004,08:00,0.0,R,ugm-3,3.1,R,ugm-3,3.1,R,ugm-3,90,R,ugm-3,0.0,R,ugm-3
13-01-2004,09:00,0.0,R,ugm-3,4.0,R,ugm-3,4.0,R,ugm-3,88,R,ugm-3,0.0,R,ugm-3
13-01-2004,10:00,0.0,R,ugm-3,3.1,R,ugm-3,3.1,R,ugm-3,86,R,ugm-3,0.0,R,ugm-3
13-01-2004,11:00,0.0,R,ugm-3,4.0,R,ugm-3,4.0,R,ugm-3,86,R,ugm-3,0.0,R,ugm-3
13-01-2004,12:00,0.0,R,ugm-3,4.6,R,ugm-3,4.6,R,ugm-3,86,R,ugm-3,0.0,R,ugm-3
13-01-2004,13:00,0.0,R,ugm-3,7.1,R,ugm-3,7.1,R,ugm-3,82,R,ugm-3,1.9,R,ugm-3
13-01-2004,14:00,0.8,R,ugm-3,8.6,R,ugm-3,9.7,R,ugm-3,80,R,ugm-3,2.9,R,ugm-3
13-01-2004,15:00,0.0,R,ugm-3,10.1,R,ugm-3,10.1,R,ugm-3,78,R,ugm-3,1.1,R,ugm-3
13-01-2004,16:00,0.0,R,ugm-3,11.7,R,ugm-3,11.7,R,ugm-3,74,R,ugm-3,0.0,R,ugm-3
13-01-2004,17:00,0.0,R,ugm-3,13.8,R,ugm-3,13.8,R,ugm-3,68,R,ugm-3,0.3,R,ugm-3
13-01-2004,18:00,0.0,R,ugm-3,15.3,R,ugm-3,15.3,R,ugm-3,68,R,ugm-3,0.3,R,ugm-3
13-01-2004,19:00,0.0,R,ugm-3,12.8,R,ugm-3,12.8,R,ugm-3,70,R,ugm-3,0.8,R,ugm-3
13-01-2004,20:00,0.0,R,ugm-3,15.3,R,ugm-3,15.3,R,ugm-3,66,R,ugm-3,3.5,R,ugm-3
13-01-2004,21:00,,,,,,,,,,,,,,,
13-01-2004,22:00,,,,,,,,,,,,,,,
13-01-2004,23:00,,,,,,,,,,,,,,,
13-01-2004,24:00,,,,,,,,,,,,,,,
14-01-2004,01:00,,,,,,,,,,,,,,,
14-01-2004,02:00,,,,,,,,,,,,,,,
14-01-2004,03:00,,,,,,,,,,,,,,,
14-01-2004,04:00,,,,,,,,,,,,,,,
14-01-2004,05:00,,,,,,,,,,,,,,,
14-01-2004,06:00,,,,,,,,,,,,,,,
14-01-2004,07:00,0.0,R,ugm-3,3.6,R,ugm-3,3.6,R,ugm-3,90,R,ugm-3,,,
14-01-2004,08:00,0.0,R,ugm-3,3.1,R,ugm-3,3.1,R,ugm-3,92,R,ugm-3,,,
14-01-2004,09:00,0.0,R,ugm-3,4.6,R,ugm-3,4.6,R,ugm-3,92,R,ugm-3,,,